Location: Tamazert
(32.6352°N, 5.2072°W)
Time: 11:46:30
(UTC+00:00)

Vanguard 2 - Visible Passes

Search period start: 05 October 2022 00:00
Search period end: 15 October 2022 00:00
Orbit: 552 x 2935 km, 32.9° (Epoch: 05 October)

Date Brightness Start Highest point End Pass type
(mag) Time Alt. Az. Time Alt. Az. Time Alt. Az.
05 Oct 11.4 20:00:06 10° W 20:13:58 29° SW 20:26:34 10° S visible
06 Oct 11.0 18:04:07 10° W 18:19:50 53° SSW 18:36:15 10° SE visible
06 Oct 11.6 20:19:07 10° W 20:30:51 22° SW 20:41:42 10° S visible
07 Oct 11.3 18:21:52 10° W 18:37:00 44° SW 18:52:42 10° SSE visible
07 Oct 11.8 20:39:28 10° WSW 20:47:44 15° SW 20:55:35 10° SSW visible
08 Oct 11.5 18:39:52 10° W 18:54:06 35° SW 19:08:47 10° SSE visible
09 Oct 11.7 18:58:17 10° W 19:11:10 27° SW 19:24:22 10° S visible
10 Oct 11.9 19:17:28 10° W 19:28:14 20° SW 19:39:12 10° S visible
11 Oct 12.0 19:38:21 10° WSW 19:45:20 14° SW 19:52:25 10° SSW visible
13 Oct 12.0 17:57:28 10° W 18:08:32 24° SW 18:21:06 10° S visible
14 Oct 12.1 18:17:01 10° WSW 18:25:48 17° SW 18:35:26 10° S visible
